Back to catalog

STARLINK-5826

AliveCommunicationsVLEO
NORAD 55782·PAYLOAD·🇺🇸 United States

Launched Mar 3, 2023 from Vandenberg Space Force Base

Loading…

Next Passes (next 24 hours)

TLE

FreshSource: CelesTrak SupGP

Epoch: Sep 15, 2026, 01:22 UTC

1 55782C 23028AT  26258.05743056  .00765380  00000+0  63492-1 0  2586
2 55782  70.0001  87.1756 0003026 278.9138 207.8911 14.98339551    17

Track STARLINK-5826 in real time with AllMySat

Download on the App Store